Time,TemperatureF,DewpointF,PressureIn,WindDirection,WindDirectionDegrees,WindSpeedMPH,WindSpeedGustMPH,Humidity,HourlyPrecipIn,Conditions,Clouds,dailyrainin,SolarRadiationWatts/m^2,SoftwareType,DateUTC
2013-02-01 00:01:00,55.0,14.0,30.22,East,95,4.0,7.0,19,0.00,,,0.00,0.000000,,2013-02-01 08:01:00,
2013-02-01 00:42:00,51.0,25.0,30.21,ENE,76,5.0,7.0,36,-99.99,,,0.00,0.000000,,2013-02-01 08:42:00,
2013-02-01 00:52:00,51.0,25.0,30.21,ENE,76,5.0,7.0,36,-99.99,,,0.00,0.000000,,2013-02-01 08:52:00,
2013-02-01 01:01:00,51.0,25.0,30.21,ENE,76,5.0,7.0,36,-99.99,,,0.00,0.000000,,2013-02-01 09:01:00,
2013-02-01 01:11:00,51.0,25.0,30.21,ENE,76,5.0,7.0,36,-99.99,,,0.00,0.000000,,2013-02-01 09:11:00,
2013-02-01 01:32:00,52.0,25.0,30.21,East,88,10.0,10.0,34,0.00,,,0.00,0.000000,,2013-02-01 09:32:00,
2013-02-01 01:42:00,52.0,25.0,30.21,East,88,10.0,10.0,34,0.00,,,0.00,0.000000,,2013-02-01 09:42:00,
2013-02-01 01:52:00,52.0,25.0,30.21,East,88,10.0,10.0,34,0.00,,,0.00,0.000000,,2013-02-01 09:52:00,
2013-02-01 02:01:00,52.0,25.0,30.21,East,88,10.0,10.0,34,0.00,,,0.00,0.000000,,2013-02-01 10:01:00,
2013-02-01 02:32:00,50.0,23.0,30.20,ESE,102,10.0,12.0,34,-99.99,,,0.00,0.000000,,2013-02-01 10:32:00,
2013-02-01 02:43:00,50.0,23.0,30.20,ESE,102,10.0,12.0,34,-99.99,,,0.00,0.000000,,2013-02-01 10:43:00,
2013-02-01 02:53:00,50.0,23.0,30.20,ESE,102,10.0,12.0,34,-99.99,,,0.00,0.000000,,2013-02-01 10:53:00,
2013-02-01 03:01:00,50.0,23.0,30.20,ESE,102,10.0,12.0,34,-99.99,,,0.00,0.000000,,2013-02-01 11:01:00,
2013-02-01 03:11:00,50.0,23.0,30.20,ESE,102,10.0,12.0,34,-99.99,,,0.00,0.000000,,2013-02-01 11:11:00,
2013-02-01 03:42:00,50.0,22.0,30.20,East,92,9.0,12.0,33,0.00,,,0.00,0.000000,,2013-02-01 11:42:00,
2013-02-01 03:53:00,50.0,22.0,30.20,East,92,9.0,12.0,33,0.00,,,0.00,0.000000,,2013-02-01 11:53:00,
2013-02-01 04:02:00,50.0,22.0,30.20,East,92,9.0,12.0,33,0.00,,,0.00,0.000000,,2013-02-01 12:02:00,
2013-02-01 04:12:00,50.0,22.0,30.20,East,92,9.0,12.0,33,0.00,,,0.00,0.000000,,2013-02-01 12:12:00,
2013-02-01 04:32:00,48.0,24.0,30.20,East,93,6.0,11.0,39,0.00,,,-99.99,0.000000,,2013-02-01 12:32:00,
2013-02-01 04:42:00,48.0,24.0,30.20,East,93,6.0,11.0,39,0.00,,,-99.99,0.000000,,2013-02-01 12:42:00,
2013-02-01 04:52:00,48.0,24.0,30.20,East,93,6.0,11.0,39,0.00,,,-99.99,0.000000,,2013-02-01 12:52:00,
2013-02-01 05:02:00,48.0,24.0,30.20,East,93,6.0,11.0,39,0.00,,,-99.99,0.000000,,2013-02-01 13:02:00,
2013-02-01 05:11:00,48.0,24.0,30.20,East,93,6.0,11.0,39,0.00,,,-99.99,0.000000,,2013-02-01 13:11:00,
2013-02-01 05:33:00,50.0,23.0,30.19,ESE,122,10.0,11.0,35,0.00,,,0.00,0.000000,,2013-02-01 13:33:00,
2013-02-01 05:42:00,50.0,23.0,30.19,ESE,122,10.0,11.0,35,0.00,,,0.00,0.000000,,2013-02-01 13:42:00,
2013-02-01 05:53:00,50.0,23.0,30.19,ESE,122,10.0,11.0,35,0.00,,,0.00,0.000000,,2013-02-01 13:53:00,
2013-02-01 06:03:00,50.0,23.0,30.19,ESE,122,10.0,11.0,35,0.00,,,0.00,0.000000,,2013-02-01 14:03:00,
2013-02-01 06:32:00,49.0,22.0,30.19,SE,125,11.0,12.0,34,-99.99,,,0.00,0.000000,,2013-02-01 14:32:00,
2013-02-01 06:42:00,49.0,22.0,30.19,SE,125,11.0,12.0,34,-99.99,,,0.00,0.000000,,2013-02-01 14:42:00,
2013-02-01 06:52:00,49.0,22.0,30.19,SE,125,11.0,12.0,34,-99.99,,,0.00,0.000000,,2013-02-01 14:52:00,
2013-02-01 07:02:00,49.0,22.0,30.19,SE,125,11.0,12.0,34,-99.99,,,0.00,0.000000,,2013-02-01 15:02:00,
2013-02-01 07:11:00,49.0,22.0,30.19,SE,125,11.0,12.0,34,-99.99,,,0.00,0.000000,,2013-02-01 15:11:00,
2013-02-01 07:33:00,53.0,18.0,30.20,SE,129,8.0,13.0,25,0.00,,,0.00,0.000000,,2013-02-01 15:33:00,
2013-02-01 07:42:00,53.0,18.0,30.20,SE,129,8.0,13.0,25,0.00,,,0.00,0.000000,,2013-02-01 15:42:00,
2013-02-01 07:52:00,53.0,18.0,30.20,SE,129,8.0,13.0,25,0.00,,,0.00,0.000000,,2013-02-01 15:52:00,
2013-02-01 08:02:00,53.0,18.0,30.20,SE,129,8.0,13.0,25,0.00,,,0.00,0.000000,,2013-02-01 16:02:00,
2013-02-01 08:33:00,53.0,25.0,30.21,SSE,150,9.0,12.0,33,-99.99,,,0.00,0.000000,,2013-02-01 16:33:00,
2013-02-01 08:43:00,53.0,25.0,30.21,SSE,150,9.0,12.0,33,-99.99,,,0.00,0.000000,,2013-02-01 16:43:00,
2013-02-01 08:52:00,53.0,25.0,30.21,SSE,150,9.0,12.0,33,-99.99,,,0.00,0.000000,,2013-02-01 16:52:00,
2013-02-01 09:02:00,53.0,25.0,30.21,SSE,150,9.0,12.0,33,-99.99,,,0.00,0.000000,,2013-02-01 17:02:00,
2013-02-01 09:32:00,52.0,21.0,30.21,ESE,109,8.0,11.0,29,-99.99,,,0.00,56.000000,,2013-02-01 17:32:00,
2013-02-01 09:42:00,52.0,21.0,30.21,ESE,109,8.0,11.0,29,-99.99,,,0.00,56.000000,,2013-02-01 17:42:00,
2013-02-01 09:53:00,52.0,21.0,30.21,ESE,109,8.0,11.0,29,-99.99,,,0.00,56.000000,,2013-02-01 17:53:00,
2013-02-01 10:02:00,52.0,21.0,30.21,ESE,109,8.0,11.0,29,-99.99,,,0.00,56.000000,,2013-02-01 18:02:00,
2013-02-01 10:32:00,51.0,26.0,30.22,East,100,9.0,12.0,37,0.00,,,0.00,252.000000,,2013-02-01 18:32:00,
2013-02-01 10:42:00,51.0,26.0,30.22,East,100,9.0,12.0,37,0.00,,,0.00,252.000000,,2013-02-01 18:42:00,
2013-02-01 10:53:00,51.0,26.0,30.22,East,100,9.0,12.0,37,0.00,,,0.00,252.000000,,2013-02-01 18:53:00,
2013-02-01 11:02:00,51.0,26.0,30.22,East,100,9.0,12.0,37,0.00,,,0.00,252.000000,,2013-02-01 19:02:00,
2013-02-01 11:11:00,51.0,26.0,30.22,East,100,9.0,12.0,37,0.00,,,0.00,252.000000,,2013-02-01 19:11:00,
2013-02-01 11:42:00,54.0,22.0,30.22,ESE,114,10.0,14.0,28,0.00,,,0.00,438.000000,,2013-02-01 19:42:00,
2013-02-01 11:52:00,54.0,22.0,30.22,ESE,114,10.0,14.0,28,0.00,,,0.00,438.000000,,2013-02-01 19:52:00,
2013-02-01 12:02:00,54.0,22.0,30.22,ESE,114,10.0,14.0,28,0.00,,,0.00,438.000000,,2013-02-01 20:02:00,
2013-02-01 12:42:00,56.0,17.0,30.21,SE,143,13.0,16.0,21,0.00,,,0.00,583.000000,,2013-02-01 20:42:00,
2013-02-01 12:52:00,56.0,17.0,30.21,SE,143,13.0,16.0,21,0.00,,,0.00,583.000000,,2013-02-01 20:52:00,
2013-02-01 13:01:00,56.0,17.0,30.21,SE,143,13.0,16.0,21,0.00,,,0.00,583.000000,,2013-02-01 21:01:00,
2013-02-01 13:32:00,57.0,22.0,30.19,SSE,157,11.0,16.0,26,0.00,,,0.00,670.000000,,2013-02-01 21:32:00,
2013-02-01 13:42:00,57.0,22.0,30.19,SSE,157,11.0,16.0,26,0.00,,,0.00,670.000000,,2013-02-01 21:42:00,
2013-02-01 13:52:00,57.0,22.0,30.19,SSE,157,11.0,16.0,26,0.00,,,0.00,670.000000,,2013-02-01 21:52:00,
2013-02-01 14:02:00,57.0,22.0,30.19,SSE,157,11.0,16.0,26,0.00,,,0.00,670.000000,,2013-02-01 22:02:00,
2013-02-01 14:32:00,57.0,25.0,30.18,SSE,167,10.0,16.0,29,0.00,,,0.00,695.000000,,2013-02-01 22:32:00,
2013-02-01 14:42:00,57.0,25.0,30.18,SSE,167,10.0,16.0,29,0.00,,,0.00,695.000000,,2013-02-01 22:42:00,
2013-02-01 14:52:00,57.0,25.0,30.18,SSE,167,10.0,16.0,29,0.00,,,0.00,695.000000,,2013-02-01 22:52:00,
2013-02-01 15:01:00,57.0,25.0,30.18,SSE,167,10.0,16.0,29,0.00,,,0.00,695.000000,,2013-02-01 23:01:00,
2013-02-01 15:42:00,59.0,25.0,30.18,South,179,6.0,15.0,27,0.00,,,0.00,653.000000,,2013-02-01 23:42:00,
2013-02-01 15:52:00,59.0,25.0,30.18,South,179,6.0,15.0,27,0.00,,,0.00,653.000000,,2013-02-01 23:52:00,
2013-02-01 16:02:00,59.0,25.0,30.18,South,179,6.0,15.0,27,0.00,,,0.00,653.000000,,2013-02-02 00:02:00,
2013-02-01 16:32:00,56.0,17.0,30.18,South,178,5.0,11.0,21,0.00,,,0.00,547.000000,,2013-02-02 00:32:00,
2013-02-01 16:42:00,56.0,17.0,30.18,South,178,5.0,11.0,21,0.00,,,0.00,547.000000,,2013-02-02 00:42:00,
2013-02-01 16:52:00,56.0,17.0,30.18,South,178,5.0,11.0,21,0.00,,,0.00,547.000000,,2013-02-02 00:52:00,
2013-02-01 17:02:00,56.0,17.0,30.18,South,178,5.0,11.0,21,0.00,,,0.00,547.000000,,2013-02-02 01:02:00,
2013-02-01 17:32:00,56.0,30.0,30.18,SSW,196,7.0,9.0,37,0.00,,,0.00,324.000000,,2013-02-02 01:32:00,
2013-02-01 17:42:00,56.0,30.0,30.18,SSW,196,7.0,9.0,37,0.00,,,0.00,324.000000,,2013-02-02 01:42:00,
2013-02-01 17:52:00,56.0,30.0,30.18,SSW,196,7.0,9.0,37,0.00,,,0.00,324.000000,,2013-02-02 01:52:00,
2013-02-01 18:01:00,56.0,30.0,30.18,SSW,196,7.0,9.0,37,0.00,,,0.00,324.000000,,2013-02-02 02:01:00,
2013-02-01 18:11:00,56.0,30.0,30.18,SSW,196,7.0,9.0,37,0.00,,,0.00,324.000000,,2013-02-02 02:11:00,
2013-02-01 18:42:00,53.0,33.0,30.19,South,189,11.0,15.0,46,-99.99,,,0.00,128.000000,,2013-02-02 02:42:00,
2013-02-01 18:52:00,53.0,33.0,30.19,South,189,11.0,15.0,46,-99.99,,,0.00,128.000000,,2013-02-02 02:52:00,
2013-02-01 19:02:00,53.0,33.0,30.19,South,189,11.0,15.0,46,-99.99,,,0.00,128.000000,,2013-02-02 03:02:00,
2013-02-01 19:11:00,53.0,33.0,30.19,South,189,11.0,15.0,46,-99.99,,,0.00,128.000000,,2013-02-02 03:11:00,
2013-02-01 19:42:00,53.0,32.0,30.22,SSW,206,12.0,16.0,44,0.00,,,0.00,11.000000,,2013-02-02 03:42:00,
2013-02-01 19:52:00,53.0,32.0,30.22,SSW,206,12.0,16.0,44,0.00,,,0.00,11.000000,,2013-02-02 03:52:00,
2013-02-01 20:01:00,53.0,32.0,30.22,SSW,206,12.0,16.0,44,0.00,,,0.00,11.000000,,2013-02-02 04:01:00,
2013-02-01 20:11:00,53.0,32.0,30.22,SSW,206,12.0,16.0,44,0.00,,,0.00,11.000000,,2013-02-02 04:11:00,
2013-02-01 20:32:00,54.0,18.0,30.22,SSW,201,11.0,17.0,24,0.00,,,0.00,0.000000,,2013-02-02 04:32:00,
2013-02-01 20:42:00,54.0,18.0,30.22,SSW,201,11.0,17.0,24,0.00,,,0.00,0.000000,,2013-02-02 04:42:00,
2013-02-01 20:52:00,54.0,18.0,30.22,SSW,201,11.0,17.0,24,0.00,,,0.00,0.000000,,2013-02-02 04:52:00,
2013-02-01 21:02:00,54.0,18.0,30.22,SSW,201,11.0,17.0,24,0.00,,,0.00,0.000000,,2013-02-02 05:02:00,
2013-02-01 21:33:00,53.0,23.0,30.23,SSW,199,13.0,16.0,31,0.00,,,0.00,0.000000,,2013-02-02 05:33:00,
2013-02-01 21:42:00,53.0,23.0,30.23,SSW,199,13.0,16.0,31,0.00,,,0.00,0.000000,,2013-02-02 05:42:00,
2013-02-01 21:52:00,53.0,23.0,30.23,SSW,199,13.0,16.0,31,0.00,,,0.00,0.000000,,2013-02-02 05:52:00,
2013-02-01 22:02:00,53.0,23.0,30.23,SSW,199,13.0,16.0,31,0.00,,,0.00,0.000000,,2013-02-02 06:02:00,
2013-02-01 22:32:00,52.0,35.0,30.24,South,186,12.0,16.0,53,0.00,,,0.00,0.000000,,2013-02-02 06:32:00,
2013-02-01 22:42:00,52.0,35.0,30.24,South,186,12.0,16.0,53,0.00,,,0.00,0.000000,,2013-02-02 06:42:00,
2013-02-01 22:52:00,52.0,35.0,30.24,South,186,12.0,16.0,53,0.00,,,0.00,0.000000,,2013-02-02 06:52:00,
2013-02-01 23:02:00,52.0,35.0,30.24,South,186,12.0,16.0,53,0.00,,,0.00,0.000000,,2013-02-02 07:02:00,
2013-02-01 23:11:00,52.0,35.0,30.24,South,186,12.0,16.0,53,0.00,,,0.00,0.000000,,2013-02-02 07:11:00,
2013-02-01 23:32:00,53.0,25.0,30.24,South,169,10.0,15.0,33,0.00,,,0.00,0.000000,,2013-02-02 07:32:00,
2013-02-01 23:42:00,53.0,25.0,30.24,South,169,10.0,15.0,33,0.00,,,0.00,0.000000,,2013-02-02 07:42:00,
2013-02-01 23:52:00,53.0,25.0,30.24,South,169,10.0,15.0,33,0.00,,,0.00,0.000000,,2013-02-02 07:52:00,